Location: Invercargill
(46.4000°S, 168.3500°E)
Time: 19:45:18
(UTC+12:00)

SL-16 R/B - Pass Details

Date: 14 May 2021
Orbit: 842 x 848 km, 71.0° (Epoch: 14 June)

Event Time Altitude Azimuth Distance (km) Brightness Sun altitude
Rises 18:23:08 0° 35° (NE) 3,398 5.2 -10.1°
Reaches altitude 10° 18:27:27 10° 67° (ENE) 2,476 4.2 -10.8°
Enters shadow 18:28:53 11° 82° (E) 2,378 4.0 -11.1°
